TimeCDT,TemperatureF,Dew PointF,Humidity,Sea Level PressureIn,VisibilityMPH,Wind Direction,Wind SpeedMPH,Gust SpeedMPH,PrecipitationIn,Events,Conditions,WindDirDegrees,DateUTC
12:53 AM,57.9,41.0,53,29.94,10.0,NW,3.5,-,N/A,,Clear,310,2012-11-02 05:53:00
1:53 AM,59.0,42.1,53,29.93,10.0,West,3.5,-,N/A,,Clear,260,2012-11-02 06:53:00
2:53 AM,54.0,41.0,62,29.93,10.0,Calm,Calm,-,N/A,,Clear,0,2012-11-02 07:53:00
3:53 AM,54.0,42.1,64,29.93,10.0,Calm,Calm,-,N/A,,Clear,0,2012-11-02 08:53:00
4:53 AM,50.0,42.1,74,29.93,10.0,NNE,3.5,-,N/A,,Clear,20,2012-11-02 09:53:00
5:53 AM,45.0,41.0,86,29.96,10.0,Calm,Calm,-,N/A,,Clear,0,2012-11-02 10:53:00
6:53 AM,46.9,42.1,83,29.96,10.0,Calm,Calm,-,N/A,,Clear,0,2012-11-02 11:53:00
7:53 AM,48.9,42.1,77,29.98,10.0,Calm,Calm,-,N/A,,Clear,0,2012-11-02 12:53:00
8:53 AM,53.1,46.0,77,29.99,10.0,Calm,Calm,-,N/A,,Clear,0,2012-11-02 13:53:00
9:53 AM,57.0,44.1,62,30.01,10.0,SE,5.8,-,N/A,,Clear,130,2012-11-02 14:53:00
10:53 AM,61.0,44.1,54,30.00,10.0,SE,8.1,-,N/A,,Clear,130,2012-11-02 15:53:00
11:53 AM,66.0,45.0,47,29.98,10.0,SE,8.1,-,N/A,,Clear,130,2012-11-02 16:53:00
12:53 PM,68.0,46.0,45,29.96,10.0,ESE,10.4,-,N/A,,Clear,120,2012-11-02 17:53:00
1:53 PM,73.0,46.9,39,29.93,10.0,SE,10.4,-,N/A,,Clear,130,2012-11-02 18:53:00
2:53 PM,75.9,48.0,37,29.91,-9999.0,SSE,9.2,-,N/A,,Clear,150,2012-11-02 19:53:00
3:53 PM,75.9,50.0,40,29.89,10.0,ESE,9.2,-,N/A,,Clear,120,2012-11-02 20:53:00
4:53 PM,75.9,50.0,40,29.89,10.0,SE,6.9,-,N/A,,Clear,130,2012-11-02 21:53:00
5:53 PM,73.0,48.9,42,29.90,10.0,ESE,5.8,-,N/A,,Clear,120,2012-11-02 22:53:00
6:53 PM,66.0,48.9,54,29.91,10.0,SE,4.6,-,N/A,,Clear,130,2012-11-02 23:53:00
7:53 PM,64.0,50.0,60,29.91,10.0,SE,3.5,-,N/A,,Clear,130,2012-11-03 00:53:00
8:53 PM,63.0,51.1,65,29.92,10.0,SE,8.1,-,N/A,,Clear,130,2012-11-03 01:53:00
9:53 PM,62.1,52.0,70,29.92,10.0,ESE,8.1,-,N/A,,Clear,120,2012-11-03 02:53:00
10:53 PM,57.9,51.1,78,29.94,10.0,SE,6.9,-,N/A,,Clear,140,2012-11-03 03:53:00
11:53 PM,57.9,51.1,78,29.94,10.0,Calm,Calm,-,N/A,,Clear,0,2012-11-03 04:53:00